Boone, NC

4:31 PM EDT on August 20, 2017 (GMT -0400)
Boone

Weather History for KTNB - March, 2013

Change the Weather History Date:

Tuesday, March 5, 2013

  Actual Average (KGEV) Record (KGEV)
Temperature  
Mean Temperature 35 °F -  
Max Temperature 41 °F 56 °F 72 °F (1976)
Min Temperature 29 °F 32 °F 7 °F (1978)
Degree Days  
Heating Degree Days 30    
Moisture  
Dew Point 31 °F    
Average Humidity 90    
Maximum Humidity 100    
Minimum Humidity 62    
Precipitation  
Precipitation 0.81 in - - ()
Sea Level Pressure  
Sea Level Pressure 29.83 in    
Wind  
Wind Speed 2 mph (WSW)    
Max Wind Speed 29 mph    
Max Gust Speed 44 mph    
Visibility 6 miles    
Events Fog , Rain , Snow    
Averages and records for this station are not official NWS values.
T = Trace of Precipitation, MM = Missing Value Source: NWS Daily Summary

Daily Weather History Graph

Daily Weather History Graph

Search for Another Location

Airport or City:

Trip Planner

Search our weather history database for the weather conditions in past years. The results will help you decide how hot, cold, wet, or windy it might be!

Date:

Astronomy

Mar. 05, 2013 Rise Set
Actual Time 6:51 AM EST 6:25 PM EST
Civil Twilight 6:25 AM EST 6:51 PM EST
Nautical Twilight 5:55 AM EST 7:20 PM EST
Astronomical Twilight 5:26 AM EST 7:50 PM EST
Moon 1:54 AM EST (3/5) 12:10 PM EST (3/5)
Length of Visible Light 12h 25m
Length of Day
11h 34m
Last Quarter, 41% of the Moon is Illuminated
Mar 5
Last Quarter
Mar 11
New
Mar 19
First Quarter
Mar 27
Full
Apr 3
Last Quarter

Hourly Weather History & Observations

Time (EST) Temp. Windchill Dew Point Humidity Pressure Visibility Wind Dir Wind Speed Gust Speed Precip Events Conditions
12:15 AM 32.0 °F - 20.8 °F 63% 30.01 in 10.0 mi Calm Calm - N/A   Clear
12:35 AM 32.0 °F - 21.4 °F 65% 30.01 in 10.0 mi Calm Calm - N/A   Clear
12:55 AM 32.4 °F - 20.7 °F 62% 30.01 in 10.0 mi Calm Calm - N/A   Clear
1:35 AM 31.6 °F - 23.0 °F 70% 30.01 in 10.0 mi Calm Calm - N/A   Clear
1:55 AM 31.5 °F - 22.3 °F 69% 30.01 in 10.0 mi Calm Calm - N/A   Clear
2:15 AM 31.8 °F - 23.4 °F 71% 30.01 in 10.0 mi Calm Calm - N/A   Clear
2:35 AM 30.9 °F - 23.2 °F 73% 30.00 in 10.0 mi Calm Calm - N/A   Clear
2:55 AM 31.3 °F - 23.5 °F 73% 29.99 in 10.0 mi Calm Calm - N/A   Clear
3:15 AM 31.1 °F - 22.6 °F 71% 29.99 in 10.0 mi Calm Calm - N/A   Clear
3:55 AM 31.5 °F - 23.5 °F 73% 29.98 in 10.0 mi Calm Calm - N/A   Clear
4:15 AM 29.5 °F - 24.4 °F 81% 29.98 in 10.0 mi Calm Calm - N/A   Clear
4:35 AM 30.2 °F - 24.4 °F 79% 29.98 in 10.0 mi Calm Calm - N/A   Clear
4:55 AM 31.1 °F - 24.1 °F 75% 29.97 in 10.0 mi Calm Calm - N/A   Clear
5:15 AM 30.9 °F - 24.8 °F 78% 29.97 in 10.0 mi Calm Calm - N/A   Clear
5:35 AM 30.2 °F - 24.6 °F 80% 29.96 in 10.0 mi Calm Calm - N/A   Clear
5:55 AM 31.6 °F - 24.3 °F 74% 29.97 in 10.0 mi Calm Calm - N/A   Clear
6:15 AM 31.5 °F - 25.3 °F 78% 29.97 in 10.0 mi Calm Calm - N/A   Clear
6:35 AM 31.3 °F - 24.8 °F 77% 29.98 in 10.0 mi Calm Calm - N/A   Mostly Cloudy
6:55 AM 31.1 °F - 25.7 °F 80% 29.97 in 10.0 mi Calm Calm - N/A   Mostly Cloudy
7:15 AM 32.0 °F - 25.3 °F 76% 29.96 in 10.0 mi Calm Calm - N/A   Scattered Clouds
7:35 AM 32.0 °F - 26.1 °F 79% 29.96 in 10.0 mi Calm Calm - N/A   Scattered Clouds
8:15 AM 32.2 °F - 26.6 °F 80% 29.95 in 10.0 mi Calm Calm - N/A   Light Drizzle
8:35 AM 33.8 °F - 27.5 °F 78% 29.95 in 10.0 mi Calm Calm - N/A   Clear
8:55 AM 33.8 °F - 29.1 °F 83% 29.96 in 4.0 mi Calm Calm - N/A Rain Rain
9:15 AM 33.4 °F - 30.6 °F 89% 29.95 in 3.0 mi Calm Calm - 0.01 in Rain Rain
9:35 AM 33.3 °F - 32.5 °F 97% 29.95 in 2.5 mi Calm Calm - 0.03 in Rain Rain
9:55 AM 33.6 °F - 33.6 °F 100% 29.94 in 3.0 mi Calm Calm - 0.07 in Rain Rain
10:15 AM 33.8 °F - 33.8 °F 100% 29.94 in 2.0 mi Calm Calm - 0.02 in Rain Rain
10:35 AM 34.5 °F - 34.5 °F 100% 29.93 in 1.5 mi Calm Calm - 0.04 in Rain Rain
10:55 AM 34.7 °F - 34.3 °F 99% 29.92 in 2.0 mi Calm Calm - 0.06 in Rain Rain
11:15 AM 35.2 °F - 35.1 °F 99% 29.91 in 3.0 mi Calm Calm - 0.01 in Rain Light Rain
11:35 AM 36.0 °F - 36.0 °F 100% 29.90 in 4.0 mi Calm Calm - 0.02 in Rain Light Rain
11:55 AM 36.9 °F - 36.1 °F 97% 29.89 in 4.0 mi Calm Calm - 0.04 in Rain Light Rain
12:15 PM 38.1 °F - 37.8 °F 99% 29.87 in 10.0 mi Calm Calm - N/A   Scattered Clouds
12:35 PM 38.7 °F 36.3 °F 38.7 °F 100% 29.86 in 5.0 mi East 3.5 mph - N/A Rain Rain
1:15 PM 40.3 °F - 40.3 °F 100% 29.84 in 10.0 mi Calm Calm - N/A   Mostly Cloudy
1:35 PM 41.0 °F 37.1 °F 39.6 °F 95% 29.83 in 5.0 mi SSE 5.8 mph - 0.01 in Rain Rain
1:55 PM 40.1 °F - 40.1 °F 100% 29.81 in 1.5 mi Calm Calm - 0.07 in Rain Rain
2:15 PM 39.9 °F - 39.9 °F 100% 29.81 in 2.0 mi Calm Calm - 0.03 in Rain Rain
2:35 PM 39.4 °F - 39.4 °F 100% 29.80 in 2.0 mi Calm Calm - 0.04 in Rain Rain
2:55 PM 39.6 °F - 39.6 °F 100% 29.78 in 2.0 mi Calm Calm - 0.05 in Rain Light Rain
3:15 PM 38.3 °F 35.9 °F 38.3 °F 100% 29.79 in 3.0 mi ESE 3.5 mph - N/A   Drizzle
3:35 PM 37.6 °F 32.3 °F 37.6 °F 100% 29.78 in 1.5 mi ESE 6.9 mph - 0.03 in Rain Heavy Rain
3:55 PM 37.0 °F 33.3 °F 37.0 °F 100% 29.77 in 3.0 mi ESE 4.6 mph - 0.06 in Rain Light Rain
4:15 PM 36.9 °F 33.1 °F 36.9 °F 100% 29.75 in 7.0 mi SE 4.6 mph - N/A Rain Light Rain
4:35 PM 36.0 °F 29.6 °F 36.0 °F 100% 29.74 in 0.5 mi SE 8.1 mph - N/A Fog Fog
4:55 PM 35.1 °F 32.2 °F 35.1 °F 100% 29.72 in 0.2 mi ESE 3.5 mph - N/A   Drizzle
5:15 PM 34.7 °F - 34.7 °F 100% 29.71 in 0.5 mi Calm Calm - N/A Rain Rain
5:35 PM 34.9 °F 32.0 °F 34.9 °F 100% 29.69 in 1.2 mi SE 3.5 mph - 0.01 in Rain Heavy Rain
5:55 PM 34.2 °F - 34.2 °F 100% 29.69 in 1.0 mi Calm Calm - 0.06 in Rain Heavy Rain
6:15 PM 34.2 °F 31.2 °F 34.2 °F 100% 29.70 in 1.5 mi NNW 3.5 mph - 0.05 in Rain Rain
6:35 PM 34.5 °F - 34.5 °F 100% 29.71 in 2.0 mi Calm Calm - 0.11 in Rain Rain
6:55 PM 34.3 °F - 34.3 °F 100% 29.70 in 2.0 mi Calm Calm - 0.18 in Rain Rain
7:15 PM 34.7 °F 31.8 °F 34.7 °F 100% 29.69 in 1.2 mi North 3.5 mph - 0.07 in Snow Light Snow
7:35 PM 34.7 °F - 34.7 °F 100% 29.66 in 2.5 mi Calm Calm - 0.12 in Rain Rain
7:55 PM 34.9 °F - 34.9 °F 100% 29.65 in 2.0 mi Calm Calm - 0.16 in Rain Rain
8:15 PM 34.3 °F - 34.3 °F 100% 29.62 in 2.0 mi Calm Calm - 0.03 in Rain Light Rain
8:35 PM 34.9 °F 29.9 °F 34.9 °F 100% 29.60 in 10.0 mi WNW 5.8 mph - 0.03 in   Mostly Cloudy
8:55 PM 33.1 °F - 33.1 °F 100% 29.59 in 0.8 mi Calm Calm - 0.03 in   Overcast
9:15 PM 34.9 °F 32.0 °F 34.9 °F 100% 29.61 in 2.0 mi SSW 3.5 mph - 0.02 in Rain Rain
9:35 PM 39.4 °F 31.1 °F 39.4 °F 100% 29.62 in 7.0 mi West 15.0 mph 24.2 mph 0.03 in Rain Rain
9:55 PM 39.4 °F 28.3 °F 37.4 °F 93% 29.60 in 7.0 mi WNW 26.5 mph 34.5 mph 0.03 in   Light Drizzle
10:15 PM 37.6 °F 25.6 °F 34.0 °F 87% 29.60 in 10.0 mi West 27.6 mph 40.3 mph N/A   Scattered Clouds
10:35 PM 35.1 °F 22.0 °F 33.6 °F 94% 29.59 in 7.0 mi WNW 28.8 mph 35.7 mph N/A   Light Drizzle
10:55 PM 34.2 °F 23.3 °F 32.0 °F 92% 29.60 in 7.0 mi WNW 18.4 mph 43.7 mph N/A   Scattered Clouds
11:15 PM 33.1 °F 20.9 °F 31.8 °F 95% 29.60 in 10.0 mi WNW 21.9 mph 32.2 mph N/A   Mostly Cloudy
11:35 PM 32.4 °F 20.6 °F 29.8 °F 90% 29.60 in 10.0 mi NW 19.6 mph 27.6 mph N/A   Mostly Cloudy
11:55 PM 30.9 °F 16.9 °F 29.7 °F 95% 29.58 in 1.8 mi WNW 26.5 mph 39.1 mph N/A Snow Light Snow